sat.trackr.live / text

‹ back to catalog

STARLINK-30565

NORAD 58034 · 2023-156G

PAYLOAD ACTIVE UNKNOWN

§ Identity

Operator
Country
US
Launch date
2023-10-09
Launch site
AFWTR
Launch vehicle
Mass (kg)
RCS (m²)

Purposes: comms

External: N2YO · Heavens-Above · Gunter

§ Orbital elements

Epoch: 2026-09-20T23:36:45.172224Z

Period
93.85 min
Inclination
53.1588°
Eccentricity
0.0001276
Mean motion
15.34405119 rev/d
Perigee alt
461.8 km
Apogee alt
463.6 km
Semi-major
6,840.8 km
B*
-4.4712e-5
RAAN
249.1535°
Arg perigee
85.0927°
Mean anomaly
275.0222°
Rev number
16,624

§ Raw data

STARLINK-305651 58034U 23156G   26263.98385616 -.00001887  00000+0 -44712-4 0  99992 58034  53.1588 249.1535 0001276  85.0927 275.0222 15.34405119166240

JSON: /api/v1/satellites/58034 · /tle

For live sub-satellite position, see the globe view (requires WebGL).

§ Visibility from observer

Set your observer location to see the next 7 days of passes ≥ 10°. The values pass through the URL so the page stays shareable.

No JS? Fill the form by hand. The geolocation button needs JavaScript.